Regional Weather Roundup
Issued by NWS

Home | Current Version | Previous Version | Graphics & Text | Print | Product List | Glossary On
Versions: 1 2 3 4 5 6 7 8 9 10 11 12 13 14 15 16 17 18 19 20 21 22 23 24 25 26 27 28 29 30 31 32 33 34 35 36 37 38 39 40 41 42 43 44 45 46 47 48 49 50
000
ASUS45 KSLC 200510
RWRUT

UTAH REGIONAL WEATHER ROUNDUP
NATIONAL WEATHER SERVICE SALT LAKE CITY UT
1000 PM MST FRI DEC 19 2014

UTZ001>011-023>025-200600-

NORTHERN UTAH

CITY           SKY/WX    TMP DP  RH WIND       PRES   REMARKS
BRIGHAM CITY   CLOUDY    39  33  80 CALM      30.16S
HILL AFB       FLURRIES  39  31  71 SW6       30.14S WCI  35
LOGAN          CLOUDY    36  33  89 NE3       30.13S
OGDEN          LGT RAIN  41  32  70 SW5       30.14R
PROVO AIRPORT  CLOUDY    37  27  65 SE7       30.15S WCI  32
SALT LAKE CITY CLOUDY    41  30  65 N7        30.14R
VERNAL         CLOUDY    27  23  85 CALM      30.20S
WENDOVER       CLOUDY    36  28  75 S5        30.14F WCI  32
HEBER CITY     CLOUDY    30  23  74 E3        30.14R
WEST JORDAN    CLOUDY    39  30  70 CALM      30.14S

$$

UTZ012>022-026-027-200600-

SOUTHERN/CENTRAL UTAH

CITY           SKY/WX    TMP DP  RH WIND       PRES   REMARKS
BLANDING       PTCLDY    27  26  94 NE5       30.27S WCI  22
BRYCE CANYON   CLOUDY    23  21  92 W7        30.18F WCI  15
CEDAR CITY     CLOUDY    35  27  72 S7        30.16F WCI  29
DELTA          CLOUDY    41  26  56 S12       30.14S
MILFORD        CLOUDY    37  28  70 SW13      30.15R WCI  29
MOAB/CYNLANDS  PTCLDY    32  28  85 CALM      30.21S
PRICE          MOCLDY    27  23  85 NW5       30.20R WCI  22
ST GEORGE      MOCLDY    43  34  70 CALM      30.21S
KANAB          CLOUDY    32  30  93 N6        30.24S WCI  26

$$

REGIONAL REPORTS     COLORADO/ARIZONA

CITY           SKY/WX    TMP DP  RH WIND       PRES   REMARKS
CRAIG, CO      CLOUDY    19  15  84 CALM      30.18S
GRAND JUNCTION PTCLDY    29  27  92 E6        30.21S WCI  23
RIFLE          PTCLDY    25  20  81 SE5       30.22S WCI  19
MONTROSE       CLEAR     27  22  81 SE7       30.23S WCI  19
CORTEZ         CLEAR     25  23  92 NE7       30.21S WCI  17
PAGE, AZ       CLOUDY    38  29  70 SW6       30.21S WCI  33
GRAND CANYON   CLOUDY    25  24  96 CALM      30.21S
KINGMAN        CLOUDY    41  33  73 CALM      30.17S
FLAGSTAFF      FOG       27  26  96 CALM      30.20F VSB 1/4

$$

REGIONAL REPORTS    NEVADA/IDAHO/WYOMING

CITY           SKY/WX    TMP DP  RH WIND       PRES   REMARKS
LAS VEGAS, NV  MOCLDY    50  40  68 SW7       30.14R
ELY            CLOUDY    32  27  81 E6        30.15S WCI  26
ELKO           CLOUDY    33  32  96 CALM      30.13S
POCATELLO, ID  CLOUDY    36  34  92 SW12      30.10S WCI  28
BURLEY         CLOUDY    38  34  85 S10       30.09R WCI  31
EVANSTON, WY   CLOUDY    30  21  69 SW7       30.10S WCI  23
ROCK SPRINGS   CLOUDY    30  22  72 W8        30.08S WCI  22
KEMMERER       LGT SNOW  28  25  86 W15       30.08S WCI  17

$$



USA.gov is the U.S. government's official web portal to all federal, state and local government web resources and services.